weather.gov     
National Weather Service

Regional Weather Roundup
NWS Homepage
This page is being discontinued on March 12, 2014.
The same data is available at this site. Please update your bookmarks.
Thank you, and we apologize for the inconvenience.
Please send an email to SR-SRH.Webmaster@noaa.gov with any concerns.


Current Version
Previous Version:    01  02  03  04  05  06  07  08  09  10  11  12  13  14  15  16  17  18  19  20  21  22  23  24  25  26  27  28  29  30  
   31  32  33  34  35  36  37  38  39  40  41  42  43  44  45  46  47  48  49  50  51  52  53  54  
[Printable]
593
ASUS41 KCTP 290010
RWRCTP

REGIONAL WEATHER ROUNDUP
NATIONAL WEATHER SERVICE STATE COLLEGE PA
700 PM EST FRI NOV 28 2014

Note: "fair" indicates few or no clouds below 12,000 feet with no
significant weather and/or obstructions to visibility.

* = STATION THAT DOES NOT REPORT PRECIPITATION /E.G. RAIN...SNOW...ETC/
    THUNDER OR FOG.

PAZ002>004-007>009-013>016-020>023-029>032-290100-
WESTERN PENNSYLVANIA

CITY           SKY/WX    TMP DP  RH WIND       PRES   REMARKS
ERIE           MOCLDY    26  14  60 S7        30.22F
MEADVILLE      PTCLDY    22  13  68 VRB3      30.18S
FRANKLIN*      CLOUDY    21  12  68 CALM      30.20S
NEW CASTLE       N/A     25  15  65 CALM      30.23F
BEAVER COUNTY  NOT AVBL
BUTLER*        CLOUDY    25  16  68 CALM      30.23F
PITTSBURGH INT MOCLDY    26  18  71 CALM      30.22F
PITTSBURGH     PTCLDY    26  15  63 S7        30.21F
INDIANA*       CLOUDY    23  16  74 CALM      30.25S
LATROBE        CLOUDY    27  18  69 W7        30.25S
WASHINGTON CO* PTCLDY    27  18  69 CALM      30.24F
$$

PAZ004>006-010>012-017>019-024>028-033>037-041-042-045-046-049>053-290100-
CENTRAL PENNSYLVANIA

CITY           SKY/WX    TMP DP  RH WIND       PRES   REMARKS
BRADFORD       MOCLDY    20  10  65 CALM      30.14R
DUBOIS         CLEAR     20  12  71 CALM      30.17S
CLEARFIELD     CLEAR     21  12  68 W3        30.20S
JOHNSTOWN      PTCLDY    18  10  71 SW7       30.15S WCI   9
ALTOONA        MOCLDY    22  13  68 S5        30.21S
STATE COLLEGE  CLEAR     23  12  63 W7        30.23R WCI  15
WILLIAMSPORT   CLEAR     27  14  58 W6        30.23R
SELINSGROVE    CLEAR     27  15  61 SW5       30.26R
FT INDIANTOWN  CLEAR     28  15  57 W3        30.26R
CAPITAL CITY   PTCLDY    28  16  60 SW6       30.28R
HARRISBURG     PTCLDY    30  16  56 W6        30.27R
YORK           PTCLDY    24  16  71 CALM      30.27R
$$

PAZ038>040-043-044-047-048-054-055-060>062-067>071-290100-
EASTERN PENNSYLVANIA

CITY           SKY/WX    TMP DP  RH WIND       PRES   REMARKS
SCRANTON       CLEAR     21  11  65 S6        30.20S WCI  13
MOUNT POCONO   CLEAR     18   8  65 NW8       30.13R WCI   8
ALLENTOWN      CLEAR     29  13  51 CALM      30.24R
QUAKERTOWN*    CLEAR     25  18  74 CALM      30.24R
READING        FAIR      29  16  58 W5        30.25R
LANCASTER      CLEAR     29  15  56 CALM      30.25S
COATESVILLE    CLEAR     27  18  69 CALM      30.25R
POTTSTOWN      CLEAR     26  17  68 NW3       30.26S
BLUE BELL      CLEAR     28  21  74 CALM      30.25R
DOYLESTOWN     CLEAR     27  15  61 W3        30.24R
WILLOW GROVE   NOT AVBL
NORTH PHILA    CLEAR     32  15  49 W5        30.28R
PHILADELPHIA   PTCLDY    34  15  46 NW7       30.28R
$$




U.S. Dept. of Commerce
NOAA National Weather Service
1325 East West Highway
Silver Spring, MD 20910
E-mail: w-nws.webmaster@noaa.gov
Page last modified: May 16, 2007
NATIONAL WEATHER SERVICE: for Safety, for Work, for Fun - FOR LIFE